Tracking 19192 objects as of 20-Jun-2018
HD Live streaming from Space Station
objects crossing your sky now

DUMMY SAT

Track DUMMY SAT now!
10-day predictions
DUMMY SAT is classified as:


NORAD ID: 40073
Int'l Code: 2014-037E
Perigee: 631.0 km
Apogee: 638.2 km
Inclination: 98.4 °
Period: 97.3 minutes
Semi major axis: 7005 km
RCS: Unknown
Launch date: July 8, 2014
Source: Commonwealth of Independent States (former USSR) (CIS)
Launch site: TYURATAM MISSILE AND SPACE COMPLEX (TTMTR)
aabbcc
Your satellite tracking list
Your tracking list is empty




NASA's NSSDC Master Catalog

Two Line Element Set (TLE):
1 40073U 14037E   18171.14738178  .00000007  00000-0  84769-5 0  9992
2 40073  98.3765 301.9684 0005085 326.4248  33.6640 14.80590205213396
Source of the keplerian elements: AFSPC